When you browse on this site, cookies collect data to enhance your experience and personalize the content and advertising you see.
Visit our Privacy Policy to learn more. By continuing to use the site, you agree to this use of cookies and data.
  • In Czech Republic
  • List of Countries
  • For 7 days
  • Water Temperature
  • Satellite Maps
  • Weather Map
  • Weather Widgets
  • user-avatar
    Login

    Hourly Weather Novaya Kazanka

    Today, 19 February, Tuesday

    Time Temperature Precipitation Wind Pressure Humidity
    00:00 -9°C° 0 mm 9 mps 751 mmHg 83%
    01:00 -9°C° 0 mm 9 mps 752 mmHg 83%
    02:00 -10°C° 0 mm 9 mps 753 mmHg 83%
    03:00 -10°C° 0 mm 10 mps 753 mmHg 83%
    04:00 -12°C° 0 mm 10 mps 754 mmHg 83%
    05:00 -13°C° 0 mm 10 mps 755 mmHg 83%
    06:00 -13°C° 0 mm 10 mps 755 mmHg 82%
    07:00 -14°C° 0 mm 10 mps 756 mmHg 82%
    08:00 -14°C° 0 mm 10 mps 757 mmHg 81%
    09:00 -16°C° 0 mm 11 mps 758 mmHg 81%
    10:00 -16°C° 0 mm 11 mps 759 mmHg 81%
    11:00 -15°C° 0 mm 10 mps 760 mmHg 81%
    12:00 -15°C° 0 mm 10 mps 761 mmHg 81%
    13:00 -15°C° 0 mm 10 mps 761 mmHg 81%
    14:00 -15°C° 0 mm 10 mps 762 mmHg 81%
    15:00 -16°C° 0 mm 9 mps 763 mmHg 81%
    16:00 -16°C° 0 mm 8 mps 764 mmHg 82%
    17:00 -17°C° 0 mm 7 mps 764 mmHg 83%
    18:00 -18°C° 0 mm 7 mps 765 mmHg 83%
    19:00 -17°C° 0 mm 6 mps 766 mmHg 83%
    20:00 -17°C° 0 mm 6 mps 766 mmHg 83%
    21:00 -17°C° 0 mm 5 mps 767 mmHg 83%
    22:00 -17°C° 0 mm 5 mps 767 mmHg 84%
    23:00 -17°C° 0 mm 5 mps 768 mmHg 85%

    Tomorrow, 20 February, Wednesday

    Time Temperature Precipitation Wind Pressure Humidity
    00:00 -17°C° 0 mm 4 mps 768 mmHg 86%
    01:00 -16°C° 0 mm 4 mps 768 mmHg 86%
    02:00 -16°C° 0 mm 4 mps 768 mmHg 85%
    03:00 -16°C° 0 mm 4 mps 768 mmHg 85%
    04:00 -16°C° 0 mm 4 mps 768 mmHg 84%
    05:00 -16°C° 0 mm 4 mps 768 mmHg 84%
    06:00 -15°C° 0 mm 5 mps 767 mmHg 83%
    07:00 -14°C° 0 mm 5 mps 768 mmHg 82%
    08:00 -14°C° 0 mm 6 mps 768 mmHg 82%
    09:00 -13°C° 0 mm 7 mps 768 mmHg 82%
    10:00 -10°C° 0 mm 6 mps 767 mmHg 81%
    11:00 -9°C° 0 mm 6 mps 767 mmHg 81%
    12:00 -8°C° 0 mm 6 mps 767 mmHg 81%
    13:00 -6°C° 0 mm 6 mps 767 mmHg 81%
    14:00 -6°C° 0 mm 6 mps 767 mmHg 81%
    15:00 -5°C° 0 mm 6 mps 767 mmHg 81%
    16:00 -6°C° 0 mm 5 mps 767 mmHg 82%
    17:00 -7°C° 0 mm 5 mps 767 mmHg 83%
    18:00 -8°C° 0 mm 5 mps 767 mmHg 85%
    19:00 -8°C° 0 mm 5 mps 767 mmHg 82%
    20:00 -8°C° 0 mm 5 mps 767 mmHg 80%
    21:00 -8°C° 0 mm 5 mps 767 mmHg 77%
    22:00 -8°C° 0 mm 5 mps 767 mmHg 75%
    23:00 -8°C° 0 mm 5 mps 766 mmHg 73%

    Day after tomorrow, 21 February, Thursday

    Time Temperature Precipitation Wind Pressure Humidity
    00:00 -8°C° 0 mm 5 mps 766 mmHg 71%
    01:00 -10°C° 0 mm 5 mps 766 mmHg 72%
    02:00 -10°C° 0 mm 5 mps 766 mmHg 73%
    03:00 -10°C° 0 mm 6 mps 765 mmHg 75%
    04:00 -10°C° 0 mm 6 mps 765 mmHg 77%
    05:00 -9°C° 0 mm 6 mps 765 mmHg 79%
    06:00 -9°C° 0 mm 6 mps 765 mmHg 81%
    07:00 -8°C° 0 mm 7 mps 765 mmHg 82%
    08:00 -7°C° 0 mm 7 mps 765 mmHg 84%
    09:00 -6°C° 0 mm 7 mps 765 mmHg 85%
    10:00 -5°C° 0 mm 8 mps 764 mmHg 88%
    11:00 -4°C° 0 mm 8 mps 764 mmHg 91%
    12:00 -2°C° 0 mm 8 mps 763 mmHg 94%
    13:00 -2°C° 0 mm 8 mps 763 mmHg 94%
    14:00 -2°C° 0 mm 7 mps 763 mmHg 95%
    15:00 -2°C° 0 mm 7 mps 762 mmHg 96%
    16:00 -2°C° 0 mm 7 mps 762 mmHg 95%
    17:00 -2°C° 0 mm 8 mps 762 mmHg 94%
    18:00 -2°C° 0 mm 8 mps 761 mmHg 93%
    19:00 -2°C° 0.1 mm 8 mps 761 mmHg 93%
    20:00 -3°C° 0.1 mm 9 mps 760 mmHg 93%
    21:00 -3°C° 0.1 mm 9 mps 760 mmHg 93%
    22:00 -3°C° 0.1 mm 9 mps 759 mmHg 92%
    23:00 -3°C° 0.1 mm 9 mps 759 mmHg 92%

    22 February, Friday

    Time Temperature Precipitation Wind Pressure Humidity
    00:00 -3°C° 0.1 mm 9 mps 758 mmHg 91%
    01:00 -3°C° 0.3 mm 9 mps 758 mmHg 91%
    02:00 -3°C° 0.3 mm 9 mps 757 mmHg 91%
    03:00 -2°C° 0.3 mm 8 mps 757 mmHg 91%
    04:00 -2°C° 0.2 mm 8 mps 757 mmHg 91%
    05:00 -2°C° 0.2 mm 8 mps 757 mmHg 91%
    06:00 -2°C° 0.2 mm 7 mps 756 mmHg 92%
    07:00 -3°C° 0 mm 7 mps 757 mmHg 90%
    08:00 -4°C° 0 mm 7 mps 757 mmHg 88%
    09:00 -6°C° 0 mm 7 mps 758 mmHg 86%
    10:00 -6°C° 0 mm 7 mps 758 mmHg 84%
    11:00 -5°C° 0 mm 8 mps 759 mmHg 83%
    12:00 -4°C° 0 mm 8 mps 759 mmHg 82%
    13:00 -4°C° 0 mm 8 mps 759 mmHg 81%
    14:00 -3°C° 0 mm 7 mps 760 mmHg 80%
    15:00 -3°C° 0 mm 7 mps 760 mmHg 79%
    16:00 -3°C° 0 mm 6 mps 760 mmHg 82%
    17:00 -4°C° 0 mm 5 mps 761 mmHg 84%
    18:00 -3°C° 0 mm 4 mps 761 mmHg 86%
    19:00 -4°C° 0 mm 3 mps 762 mmHg 86%
    20:00 -4°C° 0 mm 3 mps 762 mmHg 87%
    21:00 -4°C° 0 mm 3 mps 763 mmHg 88%
    22:00 -4°C° 0 mm 3 mps 763 mmHg 87%
    23:00 -5°C° 0 mm 3 mps 763 mmHg 87%

    23 February, Saturday

    Time Temperature Precipitation Wind Pressure Humidity
    00:00 -5°C° 0 mm 3 mps 763 mmHg 87%
    01:00 -5°C° 0 mm 3 mps 764 mmHg 87%
    02:00 -5°C° 0 mm 3 mps 764 mmHg 86%
    03:00 -5°C° 0 mm 3 mps 764 mmHg 86%
    04:00 -4°C° 0 mm 2 mps 764 mmHg 86%
    05:00 -5°C° 0 mm 2 mps 765 mmHg 86%
    06:00 -3°C° 0 mm 1 mps 765 mmHg 86%
    07:00 -3°C° 0 mm 1 mps 765 mmHg 85%
    08:00 -2°C° 0 mm 1 mps 766 mmHg 84%
    09:00 -2°C° 0 mm 0 mps 766 mmHg 82%
    10:00 -2°C° 0.1 mm 0 mps 767 mmHg 84%
    11:00 0°C° 0.1 mm 1 mps 767 mmHg 86%
    12:00 0°C° 0.1 mm 1 mps 767 mmHg 87%
    13:00 0°C° 0.2 mm 1 mps 767 mmHg 89%
    14:00 -2°C° 0.2 mm 2 mps 767 mmHg 91%
    15:00 -2°C° 0.2 mm 2 mps 767 mmHg 93%
    16:00 -2°C° 0.2 mm 3 mps 768 mmHg 94%
    17:00 -4°C° 0.2 mm 3 mps 768 mmHg 95%
    18:00 -4°C° 0.2 mm 3 mps 768 mmHg 96%
    19:00 -4°C° 0.2 mm 3 mps 768 mmHg 96%
    20:00 -4°C° 0.2 mm 3 mps 768 mmHg 96%
    21:00 -4°C° 0.2 mm 3 mps 769 mmHg 96%
    22:00 -4°C° 0 mm 3 mps 769 mmHg 96%
    23:00 -4°C° 0 mm 3 mps 769 mmHg 95%

    24 February, Sunday

    Time Temperature Precipitation Wind Pressure Humidity
    00:00 -4°C° 0 mm 3 mps 769 mmHg 95%
    01:00 -4°C° 0 mm 3 mps 769 mmHg 94%
    02:00 -4°C° 0 mm 4 mps 769 mmHg 93%
    03:00 -4°C° 0 mm 4 mps 769 mmHg 92%
    04:00 -4°C° 0 mm 4 mps 769 mmHg 91%
    05:00 -4°C° 0 mm 4 mps 769 mmHg 90%
    06:00 -5°C° 0 mm 4 mps 769 mmHg 89%
    07:00 -4°C° 0 mm 4 mps 770 mmHg 87%
    08:00 -3°C° 0 mm 4 mps 770 mmHg 85%
    09:00 -3°C° 0 mm 4 mps 770 mmHg 84%
    10:00 -2°C° 0 mm 4 mps 771 mmHg 86%
    11:00 -2°C° 0 mm 4 mps 771 mmHg 89%
    12:00 -1°C° 0 mm 5 mps 771 mmHg 91%
    13:00 -1°C° 0 mm 4 mps 771 mmHg 90%
    14:00 -1°C° 0 mm 4 mps 771 mmHg 89%
    15:00 -1°C° 0 mm 4 mps 771 mmHg 89%
    16:00 -2°C° 0 mm 4 mps 771 mmHg 87%
    17:00 -2°C° 0 mm 4 mps 772 mmHg 85%
    18:00 -3°C° 0 mm 4 mps 772 mmHg 84%
    19:00 -3°C° 0 mm 4 mps 772 mmHg 83%
    20:00 -3°C° 0 mm 4 mps 772 mmHg 83%
    21:00 -4°C° 0 mm 4 mps 772 mmHg 82%
    22:00 -4°C° 0 mm 4 mps 772 mmHg 82%
    23:00 -4°C° 0 mm 3 mps 772 mmHg 81%
    Show more